Location: Be?i?
(36.9044°N, 30.1006°E)
Time: 12:30:09
(UTC+00:00)

Cosmos 1459 Rocket - Pass Details

Date: 05 August 2024
Orbit: 935 x 999 km, 83.0° (Epoch: 08 September)

Event Time Altitude Azimuth Distance (km) Brightness Sun altitude
Exits shadow 20:04:24 53° 62° (ENE) 1,192 4.3 -29.3°
Drops below altitude 10° 20:09:38 10° 16° (NNE) 2,712 6.8 -29.9°
Sets 20:12:09 0° 12° (NNE) 3,652 7.6 -30.1°
